GFSMW_prec_radar_069.txt.gz
Reflectivity
-20 -20 -20 -20 -20 -20 -20 -20 5 1 -1 -20 -16 11 6 -20 2 -20 -5 19 33 28 7 2 -3 -11 -20 -20 -20 -13 -18 -20 -20 -20 -20 -20 0 -20 -20 -6 -20 -20 -20
-20 -20 -20 -20 -20 -20 -20 -20 -19 4 -16 -15 -20 -9 -19 -20 -20 -20 -20 -18 -6 17 21 11 19 8 -14 -19 -18 -20 -20 -20 -20 -20 -19 -8 3 -12 -20 -20 -12 -20 -20
-20 -20 -20 -20 -20 -20 -20 -20 -20 -20 11 -6 -7 -20 20 -20 -20 -20 4 -14 -17 11 27 6 19 13 2 7 -16 -14 -20 -20 -20 -20 4 -18 6 11 -10 4 -8 -20 -20
-20 -20 -20 -20 -20 -20 -20 -20 -20 -20 -20 -20 -9 -14 -20 -14 -8 -18 11 28 12 -9 26 18 18 12 5 21 21 -13 -20 -18 -20 -20 -10 1 3 17 29 14 12 1 -20
-20 -20 -20 -20 -20 -20 -20 -20 -20 -20 -20 -20 -13 6 10 3 10 11 1 -3 31 1 18 18 26 23 10 3 16 9 -18 -19 -20 -20 -20 -9 18 16 5 16 5 -20 -20
-20 -20 -20 -20 -20 -20 -20 -20 -20 -20 -20 -20 -20 -20 -20 -15 -4 -3 3 5 25 15 25 28 23 18 10 13 19 21 5 -5 -15 -15 -11 -17 -1 -7 22 2 -20 -20 -20
-20 -20 -20 -20 -20 -20 -20 -20 -20 -20 -20 -20 -20 -20 -20 -20 11 3 7 -14 -5 14 13 28 -1 10 14 10 25 31 26 21 11 1 6 13 15 16 6 -11 3 -20 -20
-20 -20 -20 -20 -20 -20 -20 -20 -20 -20 -20 -20 -20 -20 -20 -20 -19 16 12 -3 -20 1 14 20 24 28 27 19 20 26 30 33 26 9 -5 8 6 10 -18 -20 -20 -20 -20
-20 -20 -20 -20 -20 -20 -20 -20 -20 -20 -20 -20 -20 -20 -20 -20 -20 -20 8 15 -20 -20 -20 -20 1 16 24 28 27 22 27 32 28 23 21 19 7 -20 -20 -20 -20 -20 -20
-20 -20 -20 -20 -20 -20 -20 -20 -20 -20 -20 -20 -20 -20 -20 -20 -20 -20 -20 -20 -20 -20 -20 -20 -20 -20 3 15 20 21 19 22 18 16 -20 -20 -20 -20 -17 -17 -20 -7 12
-20 -20 -20 -20 -20 -20 -20 -20 -20 -20 -6 -20 -20 -20 -20 -20 -20 -20 -20 -20 -20 -20 -20 -20 -20 -20 -19 -20 -17 -14 -16 -20 -20 2 -4 -20 -20 -20 -20 -20 -20 -20 12
-20 -20 -20 -20 15 1 -18 -20 -20 -20 -20 -20 -20 -20 -20 -20 -20 -20 -20 -20 -20 -20 -20 -20 -20 -20 -19 -3 -16 -20 -20 -20 -20 -20 -20 -20 -20 -20 -20 -9 6 12 6
-20 -20 -20 -20 -14 25 27 -20 0 7 12 -8 -20 -20 -20 -20 -20 -20 -20 -20 -20 -20 -20 -20 -20 -20 -20 -20 -20 -20 -20 -12 -20 -20 -20 -20 -20 -20 -20 -20 -20 -7 -15
19 21 20 20 24 25 29 28 6 -20 -19 -8 -5 -12 -17 -20 -16 -20 -20 -20 -20 -20 -20 -20 -20 -20 -20 -20 -20 -20 -20 -20 -20 -20 -20 -20 -20 -20 -20 -20 -20 -20 -10
-11 -9 7 16 13 15 17 17 -20 -20 -20 -20 -20 -20 -20 -19 15 25 -20 -20 -20 -20 -20 -20 -20 -20 -20 -20 -20 -20 -20 -20 -20 -20 -20 -20 -20 -20 -20 -20 -20 -20 -20
-20 -20 -20 -20 -20 -20 -20 -20 -20 -20 -20 -20 -20 -20 -20 -8 10 12 -14 -6 11 27 28 -19 -20 -20 -20 2 6 -20 -20 -20 -20 -20 -20 -20 -20 -20 -20 -20 -20 -20 -20
20 18 -6 18 3 -20 -20 -20 -20 -20 -20 -20 -20 -20 -20 -7 -4 11 8 15 19 1 2 -3 -5 -20 -19 -20 -20 10 -7 -6 -20 -20 -20 -20 -20 -20 -20 -20 -20 -20 -20
24 -6 -0 26 2 -20 -20 -20 -20 -20 -20 -20 -20 -20 -20 -20 -20 -20 -20 13 11 12 17 15 11 16 -6 2 -7 24 26 18 13 -20 -20 -20 -20 -20 -20 -20 -20 -20 -20
26 20 4 11 8 11 8 -19 -20 -20 -20 -20 -20 -20 -20 -20 -20 -20 -20 -20 -20 -15 1 2 7 21 22 21 17 22 -2 -7 -11 23 20 17 -3 -20 2 -19 -20 -20 -20
28 22 13 4 9 -20 -20 -20 -20 -20 -20 -20 -20 -20 -20 -20 -20 -20 -20 -20 -19 -20 -20 -20 -20 12 -2 20 11 7 -9 -7 2 3 23 27 18 12 11 7 9 7 -19
3 2 0 1 11 5 -5 -5 -9 -20 -20 -20 -20 -20 -20 -20 -20 -20 -20 -20 -20 -20 -20 -20 -8 10 23 11 16 13 -2 9 26 25 14 12 24 15 17 25 28 24 20
-14 -9 -11 -20 -20 -20 -20 -20 -20 -20 -20 -20 -20 -20 -20 -20 -20 -20 -20 -20 -20 -20 -20 -20 -20 -11 3 24 21 18 13 16 19 35 31 33 31 8 12 26 35 35 35
-20 -20 -20 -20 -20 -20 -10 -7 -20 -20 -20 -20 -20 -20 -20 -20 -20 -20 -20 -20 -20 -20 -20 -20 -20 -5 -10 11 19 12 11 15 19 19 26 27 28 22 22 29 23 29 36
-20 -20 -20 -20 -14 -20 -20 -20 -20 -20 -20 -20 -20 -20 -20 -20 -20 -20 -20 -20 -20 -20 -20 -20 -20 -16 -4 3 -3 -2 9 20 10 22 24 24 30 28 32 33 25 15 23
-20 -20 -20 -20 -20 -20 -20 -20 -20 -20 -20 -20 -20 -20 -20 -20 -20 -19 -19 -18 -20 -20 -20 -20 -20 -20 -12 12 9 5 7 12 16 17 23 24 22 17 21 30 33 28 20
-20 -20 -20 -20 -20 -20 -20 -20 -18 -20 -20 -20 -20 -20 -20 -20 -20 -20 -20 -12 -20 -20 -20 -20 -20 -20 -10 -1 10 14 13 15 20 20 23 25 24 24 22 22 12 16 20

GFSMW_prec_radar_072.txt.gz
Reflectivity
2 -14 -20 -20 -20 -20 -20 -20 -17 -18 -4 -16 9 -20 -20 8 -16 3 25 38 30 34 28 3 -19 -20 -20 -20 -20 -20 -20 -20 -20 -20 -20 -20 -13 7 -20 -20 -20 -20 -20
-6 -20 -20 -20 -20 -20 -20 -20 -20 -19 -19 -20 6 -18 -20 3 -20 5 22 31 33 34 29 3 -19 -20 -20 -20 -19 -20 -17 -20 -5 -12 -11 -20 -20 -20 -8 1 -16 -20 -20
-20 -20 -20 -20 -20 -20 -20 -20 -20 -20 -18 -13 19 3 -20 -20 -20 17 7 24 27 30 31 30 16 -20 -15 -18 -20 -9 -18 -13 1 -19 -12 -20 -20 0 4 11 14 -4 -20
-20 -20 -20 -20 -20 -20 -20 -20 -10 7 -13 6 -6 -20 -20 -20 -6 -16 -7 17 -11 11 24 28 30 18 -13 7 -18 6 -20 -20 -20 -20 -20 -20 -20 -20 -20 -3 18 8 12
-20 -20 -20 -20 -20 -20 -20 -20 -18 -5 -20 -3 5 -15 -0 -20 -7 -13 -20 6 21 19 17 24 26 22 22 15 12 6 -20 -20 -20 -20 -20 -20 -20 -20 -17 12 15 24 8
-20 -20 -20 -20 -20 -20 -20 -20 -20 -2 -12 -20 -8 1 12 4 -20 -18 -19 -7 15 30 17 -2 29 24 -5 13 8 -6 -10 -5 -20 -20 -17 -6 -18 1 14 -14 -3 -2 -20
-19 -20 -20 -20 -20 -20 -20 -20 -20 -17 -2 -20 -20 5 -5 4 -0 -15 -20 4 4 19 15 13 18 25 12 22 24 11 10 8 6 5 -7 7 8 6 21 -14 -20 12 -16
-20 -20 -20 -20 -20 -20 -20 -20 -20 -20 -15 -20 -20 -0 -8 -20 -20 9 -14 -20 -12 -1 0 3 12 26 25 21 24 21 15 25 17 -6 9 5 7 4 2 7 22 12 2
-20 -20 -20 -20 -20 -20 -20 -20 -20 -20 -20 -20 -20 -20 -20 -20 -20 -20 -20 -2 9 -16 -20 -15 31 23 23 17 17 25 26 22 11 13 25 9 2 -4 8 19 2 -18 -18
-6 -20 -20 -20 -20 -20 -15 -20 -20 -20 -20 -20 -20 -20 -20 -20 -20 -20 1 9 -15 -19 -15 5 -13 -13 10 24 22 16 20 21 24 22 30 33 24 5 12 15 2 -8 -19
-6 -19 -13 -20 -14 -1 12 11 7 -20 -20 -20 -20 -20 -20 -20 -20 -20 -20 -10 11 -7 -20 -20 -20 -20 -20 -15 20 25 17 13 18 -2 22 19 16 31 20 5 -20 -20 -20
-20 -3 5 -20 -19 -7 21 -5 14 9 -20 -20 2 -20 -20 -20 -20 -20 -20 -20 -20 -20 -20 -20 -20 -20 -20 -20 -20 -20 16 -9 -2 9 -4 -19 -18 -20 -20 -20 -20 -20 -20
-20 3 12 20 13 5 8 15 10 23 -17 -20 3 8 -8 -18 -20 -20 -20 -20 -20 -20 -20 -20 -20 -20 -20 -20 -20 -20 -20 -20 -20 -20 -20 -20 -20 -20 -20 -7 -16 -20 -20
-8 -8 -16 11 -5 -11 21 21 20 22 20 5 -20 -20 -20 -20 -17 -4 -19 -20 -20 -20 -20 -20 -20 -20 -20 -20 -20 -20 -20 -20 -20 -10 -10 -0 -20 -20 -20 -20 -20 -20 -20
17 18 16 16 23 17 19 4 10 15 17 -10 -20 -9 1 -17 -20 -20 -15 5 -10 -0 2 -9 -20 -20 -20 -20 -20 -20 -20 -20 -20 -20 -20 -20 -20 -20 -20 -20 -20 -20 -20
-2 -1 -17 -20 14 14 -4 5 26 24 15 -0 -2 0 7 11 15 -2 -1 1 -3 8 14 26 8 18 7 11 -14 -20 -20 -20 -20 -20 -20 -20 -20 -20 -20 -20 -20 -20 -20
-19 -1 3 -11 5 7 -0 -6 -3 7 -20 -20 -20 -20 -20 -17 1 12 12 9 17 17 12 16 20 18 15 25 19 20 14 18 7 -9 -20 -20 -20 -17 -20 -20 -20 -20 -20
32 26 -3 -7 -0 -20 -18 -13 -20 -20 -20 -20 -20 -20 -20 -20 -20 -20 -20 -20 -20 -13 4 16 13 18 23 20 14 15 10 -2 -15 -0 17 11 14 7 12 -20 -20 -20 -20
33 36 22 24 20 10 -18 -2 -5 -20 -20 -20 -20 -20 -20 -20 -20 -20 -20 -20 -20 -20 -17 -20 -20 -20 -19 11 0 3 -18 -15 -13 -17 20 20 20 16 17 18 22 17 19
20 26 28 25 18 9 12 5 -4 -20 -20 -20 -20 -20 -20 -20 -20 -20 -20 -20 -20 -10 -20 -20 -20 11 -20 14 7 0 -20 -20 1 26 27 29 19 13 0 15 18 22 30
16 8 12 17 18 12 10 -18 -20 -20 -19 -10 -9 -16 -20 -20 -20 -20 -20 -20 -20 -20 -20 -20 -20 -20 -20 -18 -0 6 -20 -20 -18 7 20 24 30 13 13 24 18 24 31
-16 -15 -14 -18 -13 8 10 14 5 2 -7 -16 -20 -20 -20 -20 -20 -20 -20 -20 -20 -20 -20 -20 -20 -20 -20 -14 -13 -20 -20 0 -18 -13 0 12 20 13 18 21 20 28 32
-2 -20 -20 -20 -20 -20 -19 -17 -1 2 -7 -8 -20 -20 -20 -20 -20 -20 -20 -20 -20 -20 -20 -20 -20 -20 -20 -20 -20 -7 -20 -17 -18 -11 9 9 6 11 14 9 16 19 20
-3 1 -20 -18 -17 -20 -20 -20 -20 -20 -20 -20 -20 -20 -20 -20 -20 -20 -20 -20 -20 -20 -20 -20 -20 -20 -20 -20 -20 -20 -20 -20 -20 -20 -5 2 -1 1 4 6 7 17 24
-20 -20 -20 -20 -20 -20 -20 -13 -20 -20 -20 -20 -20 -20 -20 -20 -20 -18 -18 -19 -12 -11 -20 -20 -15 -20 -20 -2 -14 -14 -20 -20 -20 -20 -20 -20 -17 -3 5 6 5 5 8
-20 -20 -20 -20 -20 -20 -20 -20 -20 -20 -20 -20 -20 -20 -20 -20 -20 -20 -19 1 0 4 5 -6 -20 -15 -5 -15 -5 -7 -20 -20 -18 -20 -20 -20 -16 -14 -4 7 13 12 12

GFSMW_prec_radar_075.txt.gz
Reflectivity
-20 -20 -20 -20 -20 -20 -20 -20 -20 -20 3 11 -5 -8 -5 -20 -17 -7 12 -1 19 33 32 0 19 22 23 15 -20 -20 -20 -20 -20 -20 -20 -20 -20 -20 -20 -17 -20 -20 -20
-20 -20 -20 -20 -20 -20 -20 -20 -20 -12 -7 -20 -19 4 -19 -20 -12 -20 3 3 20 35 21 21 25 26 23 -3 -20 -20 -20 -20 -20 -20 -20 -2 -18 -20 -17 9 7 -16 -20
-20 -20 -20 -20 -20 -20 -20 -20 -20 -14 -13 2 -20 3 -15 -20 -0 -17 8 16 32 33 35 31 34 27 11 -20 -20 -20 -20 -20 -20 -20 -20 -20 -16 3 -8 -11 -2 -11 -7
-20 -20 -20 -20 -20 -20 -20 -20 -20 -20 -20 -20 8 -3 1 -18 14 -20 18 21 19 32 36 31 23 12 -6 -20 -20 -20 -20 -20 -20 -20 -20 -20 -20 -19 -20 -20 -20 -20 -15
-20 -20 -20 -20 -20 -20 -20 -20 -20 -20 -20 -20 -17 -19 -4 5 -16 13 -3 2 20 14 28 29 26 18 6 8 -16 -14 -20 -20 -20 -20 -20 -20 -20 -20 -20 -20 -20 -1 4
-20 -20 -20 -20 -20 -20 -20 -20 -20 -20 -6 -20 -20 -14 -5 -12 -20 -7 6 -9 13 27 28 -1 12 16 0 -16 -10 3 -19 -20 -18 -17 -20 -20 -20 -20 -20 -20 -16 -20 -2
-20 -20 -20 -20 -20 -20 -20 8 -20 -20 -18 -20 -18 -11 7 9 -6 -18 -15 -20 -20 8 22 27 20 19 26 23 1 -5 -3 -20 -20 -1 -20 -17 -4 -4 4 -18 -7 -20 -20
-20 -4 -18 -20 -20 -20 -20 -19 -20 -20 -11 -20 -16 -8 -19 5 10 4 10 -9 -10 3 24 23 16 14 29 27 24 10 9 15 -18 -8 -6 4 6 2 6 -8 11 -15 -20
-20 4 -11 -20 -20 -20 10 -3 -20 -20 -7 -19 -20 -20 -20 -20 -20 -19 4 -20 1 -4 -20 18 20 19 7 23 24 20 21 12 14 19 18 -13 3 -0 -12 -20 -16 6 8
-20 -17 -4 -20 -20 -20 0 -4 -20 -19 -18 9 -1 -20 -20 -20 -20 -20 8 -1 14 13 -3 7 -15 18 31 26 17 27 16 12 4 10 1 -9 13 -1 6 6 8 8 13
-5 -10 -20 -20 -20 -20 10 13 -1 -20 -20 -20 -18 -7 -18 -20 -20 -20 -19 -20 -20 -8 -2 -20 -1 -7 12 -3 -15 23 22 7 8 11 15 8 3 23 12 21 24 7 23
10 15 4 -3 -18 11 7 16 -19 -10 -20 -20 -20 -20 -19 -20 -20 -20 -20 -20 -20 -20 -20 -20 8 9 6 -0 -1 -20 -20 -5 16 17 13 12 28 13 23 22 21 29 21
18 19 10 13 11 18 16 13 5 -5 -10 -8 -20 -14 -6 -20 -20 -20 -20 -20 -20 -20 -20 -20 -20 -20 -20 -20 -20 -20 -20 -20 4 15 15 10 5 2 -5 8 -10 -11 -20
22 4 -0 16 17 23 13 18 26 18 25 -8 -13 8 -20 -18 -19 -20 -20 -20 -20 -20 -20 -20 -20 -20 -20 -20 -20 -20 -20 -20 -20 -20 -20 -20 -20 -20 -20 -20 -20 -20 -20
19 18 17 15 18 17 22 27 26 20 15 8 -7 17 1 6 9 1 -6 -15 -20 -20 -20 -20 -20 -20 -20 -20 -20 -20 -20 -7 -17 -20 -20 -20 -20 -20 -20 -20 -20 -20 -20
18 18 22 11 3 19 21 23 12 -20 6 -9 8 -13 10 13 11 12 4 -2 -2 4 6 12 5 14 23 20 2 14 -13 -18 -20 -20 -20 -20 -20 -20 -20 -20 -20 -20 -12
6 8 -10 -13 -15 -20 2 -20 -20 -14 -5 21 24 -15 -20 -18 -11 -9 2 -3 3 11 18 13 19 22 16 22 12 14 8 1 14 10 5 -6 -6 15 -11 -18 -15 -8 -9
-3 11 11 -4 -20 -14 -20 -20 2 -13 8 31 6 -11 -20 -20 -20 -20 -20 -20 -20 -11 -1 3 6 6 5 12 3 -7 -18 -20 -2 7 12 20 20 22 23 16 18 16 15
28 21 15 26 -1 -8 19 12 30 31 6 -19 -16 -10 -20 -20 -20 -20 -20 -20 -12 -20 -20 -20 -20 -18 -17 11 11 7 -18 3 14 19 16 10 -1 18 11 7 -2 -11 23
22 24 10 18 22 22 14 1 7 -6 1 4 8 5 -20 -20 -20 -20 -20 -20 -20 -20 -20 -20 -20 -13 -20 -20 -20 -20 -20 -20 -20 -20 -19 17 12 16 12 4 -13 2 24
19 17 6 2 18 26 24 11 6 12 -19 -8 -20 -20 -20 -20 -20 -20 -20 -20 -20 -20 -20 -20 -20 -20 -20 -13 -20 -17 -20 -20 -20 -20 -20 -15 7 9 6 7 -3 2 13
11 -14 -17 -13 -19 -20 -6 9 1 14 5 -12 -5 -6 -14 -13 -12 -20 -20 -20 -20 -20 -20 -20 -12 -12 -5 -8 -9 -20 0 3 -20 -20 -7 1 7 -0 -12 -14 9 2 2
-0 -20 -20 -20 -20 -20 -20 -20 -13 1 3 1 3 -0 -7 -20 -20 -20 -20 -20 -20 -20 -20 -20 -20 -20 -20 -20 -19 -20 -20 -20 -14 1 -4 -20 -20 -20 -20 -20 -20 -20 -19
16 -17 -20 -20 -20 -20 -19 -20 -20 -20 -20 -20 -6 -1 -9 -20 -20 -20 -18 -20 -20 -20 -20 -20 -13 -20 -5 -4 -20 -20 -20 -20 -20 -20 -20 -20 -20 -20 -20 -20 -20 -20 -20
11 -6 -20 -20 -20 -20 -20 -20 -20 -20 -20 -19 -20 -20 -20 -20 -16 1 -0 1 6 -0 -1 -3 -2 -2 -2 6 -4 -9 -20 -20 -20 -20 -20 -20 -20 -20 -20 -20 -20 -20 -20
4 -13 -20 -20 -20 -20 -20 -20 -20 -20 -20 -20 -20 -20 -20 -20 -20 -20 -20 -6 -2 -1 -3 -1 -0 3 4 -6 -4 -20 -20 -20 -20 -20 -20 -20 -20 -20 -20 -20 -20 -20 -20

GFSMW_prec_radar_078.txt.gz
Reflectivity
-20 -20 -20 -20 -20 -20 -20 -20 -16 -11 1 7 3 6 16 3 -2 5 -3 7 26 41 37 30 -17 26 15 29 20 3 19 6 -20 -20 13 7 -3 2 -20 -20 -20 2 -20
-20 -20 -20 -20 -20 -20 -20 -20 -20 -13 -17 -6 -14 -5 -5 13 5 8 1 -0 14 16 37 37 30 30 13 28 27 22 -2 18 -20 -4 6 6 3 3 1 -14 -20 -9 -20
-20 -20 -20 -20 -20 -20 -20 -20 -20 -20 -7 -20 0 8 -0 7 15 13 6 -10 20 -10 26 35 35 25 24 25 16 18 5 -8 -3 -20 -18 10 -9 -15 2 -11 -20 -20 -15
-20 -20 -20 -20 -20 -20 -20 -20 -20 -20 -20 -20 -0 -13 -17 -4 2 -6 -19 5 2 16 24 28 27 30 27 26 27 -1 -19 -17 6 -7 -20 -20 -20 -15 10 1 -20 -20 -20
-20 -20 -20 -20 -20 -20 -20 -20 -20 -20 -20 -20 -20 -9 4 -19 7 -3 3 7 -2 2 30 31 34 30 31 25 28 16 -17 -18 -20 -20 5 -20 -19 -20 -20 -20 -20 -20 -17
-20 -20 -20 -20 -20 -20 -20 -20 -20 -20 -20 -20 -4 -18 -18 -9 16 7 11 11 -10 15 30 35 26 30 26 22 -12 -3 -2 -13 -20 -20 -20 -18 -5 -16 -20 -20 -20 -20 -20
-20 -20 -20 -20 -20 -20 -20 -20 -20 -20 -20 -20 -16 2 7 0 -20 -8 -20 1 -3 15 13 27 21 26 27 26 13 8 8 -0 -19 -19 -2 15 -2 2 -17 -20 -20 -19 -20
-20 -20 -20 -20 -20 -20 -14 -20 -20 -20 -3 -20 -17 7 -20 -20 -20 1 19 17 -1 2 7 18 30 22 16 24 -3 -19 -0 19 6 10 7 -8 -4 14 1 -11 -18 -20 -20
-20 -20 -20 -20 -20 -20 -5 -13 -20 -20 -15 -20 -12 9 2 13 3 -15 -20 -20 -4 -9 -18 9 31 20 21 8 9 18 21 20 22 22 26 13 21 -1 -20 -17 -18 8 -9
-20 -20 -20 -20 -20 -20 -9 11 -20 -18 -20 -20 -20 -20 8 11 -20 -20 -20 3 2 11 17 -8 1 22 -9 17 -16 18 20 12 5 6 0 19 21 18 8 -20 -14 5 -8
1 -20 -20 -15 -13 -20 7 6 -20 -7 -1 -20 -20 -16 -19 -3 -20 -13 -20 -20 -14 10 -20 11 13 11 16 15 5 17 -0 21 19 21 17 24 22 15 10 -11 -20 -15 3
-6 -11 -0 3 3 10 9 16 -8 -17 -4 1 -20 -19 -16 9 12 -4 -14 -20 7 13 14 12 9 2 -20 10 19 4 9 16 11 10 4 -16 1 -5 -3 10 21 17 15
17 7 -2 13 8 11 14 23 14 -10 -0 13 -11 -1 -2 -18 -13 6 11 14 10 -13 2 10 8 9 9 8 6 2 6 8 1 -10 -20 -7 8 7 -1 -2 9 8 2
21 14 11 12 14 17 18 21 3 13 13 16 -14 -20 -9 0 4 -8 11 8 10 13 2 -20 -20 -13 -5 -4 9 14 16 8 -9 6 6 18 5 7 17 22 10 -2 5
21 24 3 15 19 20 18 24 19 17 20 11 5 -14 -20 -14 -2 15 19 8 0 14 13 13 14 3 -20 -17 -20 -9 8 1 -15 -20 -20 14 15 8 -9 22 20 19 20
23 19 12 15 20 21 17 21 15 17 16 2 -3 15 20 -16 4 -5 7 2 -3 12 15 20 19 4 -20 14 -9 -20 -20 -20 4 4 5 7 19 1 0 4 8 7 -1
27 23 26 19 22 22 18 20 21 19 10 -5 -14 -18 14 13 -9 13 14 14 18 2 -1 0 4 8 6 18 6 3 -0 0 4 21 23 17 19 26 12 25 18 11 15
36 18 16 16 13 19 19 10 -10 23 -6 -2 0 -20 6 25 7 -20 -17 -14 -12 1 11 3 1 9 5 11 3 -2 -7 -8 4 0 2 3 3 10 15 5 14 17 24
26 43 27 19 23 9 4 5 -20 -19 -16 -8 -16 -20 26 25 11 -14 -20 -18 -20 -20 -20 -20 -20 -20 -20 -1 1 1 -20 -20 -20 -19 -20 -20 -19 14 9 4 -8 21 21
33 31 17 -2 22 31 18 9 -14 -20 -20 -10 3 14 17 29 2 1 -16 -20 -20 -20 -20 -20 -20 -20 -20 -20 -20 -20 -20 -20 -20 -20 -20 2 -11 -20 -20 -20 -20 -20 -5
7 27 26 -9 -9 12 17 31 23 16 23 27 13 19 28 20 -11 3 5 -2 -20 -20 -20 -20 -20 -20 -20 -20 -20 -20 -20 -20 -20 -20 -20 -2 -6 -20 -20 -20 -20 -18 -15
19 12 7 10 -10 -19 -20 -16 -18 1 15 7 1 -14 -2 5 6 22 17 -20 -14 -20 -20 -20 -8 -13 -12 -20 -15 -20 -20 -20 -13 -3 0 1 -12 -20 -20 -13 -20 -20 -20
18 3 -17 -20 -20 -20 -20 -20 -20 -20 -5 20 20 17 16 6 8 4 1 -5 -15 -20 -20 -20 -5 -1 -17 -20 -20 -20 -20 -20 1 -7 1 -20 -20 -20 -20 -20 -20 -4 1
13 -19 -20 -20 -20 -20 -20 -20 -20 -20 -20 -20 -20 -13 -16 -20 -17 -14 -4 -10 -20 -20 -18 -6 -4 -2 -3 1 0 -20 -5 -17 -12 -17 -7 -20 -10 -20 -15 -10 -0 -1 -2
23 16 -2 -14 -20 -20 -20 -20 -20 -20 -20 -20 -20 -20 -20 -20 -8 -3 -1 -3 1 -2 -2 1 -0 1 1 2 -4 -13 -2 -4 -10 -20 -2 -4 -5 -4 -4 -5 -7 -20 -7
15 8 -20 -20 -20 -20 -20 -20 -20 -20 -20 -20 -20 -20 -20 -20 -20 -20 -3 -1 -0 -2 -20 -20 -4 -0 -13 -3 -17 -20 -20 -20 -20 -8 -2 -2 -15 -20 -20 -20 -20 -20 -20

GFSMW_prec_radar_084.txt.gz
Reflectivity
-20 -20 -20 -20 -20 -20 -20 -20 -20 -20 -20 -20 -20 -20 -20 4 -20 -15 -20 9 -4 -20 -20 -20 -11 -2 -4 -17 18 30 31 32 29 18 -20 -20 -20 -20 -20 -20 -20 -20 -20
-18 -20 -20 -20 -20 -20 -20 -20 -20 -20 -20 -20 -20 -20 -20 -20 -20 -12 -12 -1 -20 -16 6 7 -7 -20 11 1 -14 34 23 35 26 -8 -13 -0 -3 -15 -20 -20 -20 -20 -20
-20 -20 -19 -20 -20 -20 -20 -20 -12 -20 -20 -20 -20 -20 -20 -20 -20 -16 10 -20 -20 -20 3 13 10 -4 23 30 15 19 26 27 31 -18 4 -10 -19 -6 -20 -20 -20 -20 -20
-17 -1 -18 -20 -20 -20 -20 -20 -20 -20 -20 -20 -20 -20 -20 -20 -20 -20 -2 -13 12 17 17 -20 -13 -20 14 21 24 24 28 30 30 14 4 19 -13 -20 -20 -20 -20 -20 -20
3 -20 -20 -20 -20 -20 -20 -20 -20 -20 -20 -20 -20 -20 -20 -20 -20 -20 5 10 10 -20 21 -20 -20 -20 18 26 26 23 26 24 32 17 7 11 -20 -20 -20 -20 -20 -20 -20
-20 -20 -20 -20 -20 -20 -20 -20 -20 -18 -20 -20 -20 -20 -20 -20 -20 -16 7 2 -20 -19 -10 -15 -20 -6 16 30 24 27 28 27 22 20 22 7 -19 4 -15 -12 -20 -20 -20
-20 -20 5 -16 -20 -20 -20 -20 -20 -10 -20 -20 -20 -20 -20 -20 -15 -8 -2 -4 -20 -20 -20 -0 -19 4 25 20 26 31 28 28 18 13 24 9 -20 -20 -20 19 17 -20 -7
-20 -20 -20 -14 -15 -20 -20 -20 -20 -20 -20 -20 -20 -20 -20 -20 -20 -12 -20 -20 -20 -18 -15 -20 -5 22 31 24 22 26 29 26 24 19 5 -17 0 4 3 -20 -20 3 -17
-20 -20 -18 -20 4 -11 -20 -20 -20 -17 -18 4 -20 -20 -20 -20 -0 9 11 -19 -20 -3 -14 -20 5 22 19 27 27 25 25 24 25 24 25 5 13 -20 -18 -20 -18 9 3
-20 6 -20 -20 -20 -5 29 -20 -20 -19 1 3 -20 -20 -20 -20 4 12 14 12 -20 -20 -20 -15 -16 -13 19 28 33 20 21 27 29 22 9 -5 5 -2 4 -11 15 24 21
-20 -2 16 23 -20 -6 -20 -19 6 -6 -19 9 3 -20 -20 -18 9 -13 -19 -20 -15 9 -20 -17 -20 11 8 14 23 30 28 28 25 13 -0 9 21 21 25 20 25 24 25
-20 -20 0 19 24 24 -6 -6 4 -9 2 9 17 -20 10 10 3 5 10 10 -17 -19 -20 7 -11 2 -7 15 26 19 -6 28 26 33 31 29 28 28 28 18 12 18 13
-11 -1 -16 5 11 4 13 -11 21 16 18 -4 6 3 -11 6 15 13 11 14 -15 -5 -20 -10 -10 3 2 6 18 25 22 32 -2 13 1 24 18 25 19 26 20 -15 15
-9 6 11 -1 -5 19 -10 6 23 25 23 18 -17 -20 -14 -12 -12 9 2 16 11 -1 -14 -17 20 21 -9 16 12 11 4 19 29 18 1 16 19 -20 14 -2 2 -20 9
-3 2 20 16 10 15 13 13 26 20 22 25 22 21 4 13 8 7 8 3 9 6 -10 2 6 16 6 -11 1 13 10 27 14 24 18 17 20 14 -15 -16 -8 2 6
14 -14 6 18 15 29 1 15 17 23 24 -16 -8 12 2 -12 -20 6 10 11 14 4 7 10 12 11 9 18 14 17 12 13 19 7 26 30 13 12 18 19 5 -8 1
1 17 8 19 21 23 17 21 18 23 22 9 13 4 -3 1 -20 -20 -20 -20 -20 6 2 3 16 7 7 14 11 11 -20 -5 -13 14 10 -19 7 12 -19 22 13 21 19
1 22 21 11 26 27 26 22 26 24 9 16 14 14 11 17 18 4 10 6 -8 -2 -11 -20 -13 -14 1 10 7 12 -8 -13 -20 -20 -20 -19 1 8 16 21 26 26 21
4 3 28 21 33 27 27 25 27 31 21 28 27 25 14 15 22 23 24 23 21 17 28 23 13 10 14 21 19 19 3 12 18 20 21 15 18 16 5 -11 -18 -20 -18
2 21 21 31 33 34 32 25 26 28 33 37 34 24 27 30 23 25 27 16 18 8 28 28 23 28 15 16 6 -6 -20 -20 -20 -20 -20 7 -12 -20 -20 -20 -20 -20 -20
-0 10 11 25 23 37 35 25 30 33 30 28 31 37 26 35 34 25 17 -15 -7 -17 10 26 12 6 -1 -2 6 -2 -20 -20 -20 -20 -20 -15 11 7 -15 -20 -20 -16 -18
13 11 5 20 32 31 31 29 31 28 31 32 36 36 30 30 42 36 28 15 12 13 9 14 14 7 4 -0 -7 -2 -2 -2 -12 -20 -14 -11 5 -20 -16 -20 -11 -4 -10
6 8 23 10 1 21 29 26 30 39 38 38 32 29 29 34 19 18 18 14 10 -2 -5 -2 2 8 3 5 -1 -17 -11 -7 -7 -19 -20 -20 -2 -18 -20 -20 -20 -20 -20
4 -5 6 0 -16 5 13 18 14 12 16 14 21 22 21 11 18 19 17 13 17 18 22 19 21 21 20 19 19 19 11 3 9 9 2 -8 -17 -18 -20 -20 -20 -20 -20
12 2 -2 4 14 10 4 2 1 -13 -7 -14 6 9 11 11 9 -6 2 5 10 6 3 5 1 -10 -3 4 9 7 -9 -20 -20 -20 -20 -20 -20 -20 -20 -20 -20 -20 -20
15 13 15 18 3 -17 -19 -14 -14 -13 -16 -20 -18 -3 -6 -9 -15 -16 -20 -7 -20 -19 -19 -19 -20 -19 -17 -20 -20 -20 -20 -20 -20 -20 -20 -20 -20 -20 -20 -20 -20 -20 -20

GFSMW_prec_radar_087.txt.gz
Reflectivity
-20 -20 -20 -12 -3 -20 -20 -20 -20 -13 -20 -20 -20 -20 -20 14 -20 -20 -20 -20 -20 10 13 12 20 -20 -17 18 -20 -20 14 26 35 36 26 15 -6 -20 -20 -20 -20 -20 -20
-20 -20 -20 -20 -20 -20 -20 -20 -20 -20 -20 -20 -20 -20 -20 -20 -20 -20 -20 -20 -15 0 10 15 20 20 -20 -20 6 -3 17 35 25 24 10 12 -18 -20 -20 -20 -20 -20 -20
-20 -20 -20 -9 -7 -20 -20 -20 -6 -20 -20 -20 -20 -20 -20 -20 -20 -20 -20 -20 1 -15 -2 -15 2 19 -20 -7 -17 -4 9 34 26 27 -4 20 -18 -20 -20 -20 -20 -20 -20
-20 -20 -14 -5 -20 -20 -20 -19 -20 -20 -20 -20 -20 -20 -20 -20 -20 -20 -20 -20 -18 7 -20 -20 -16 -18 -20 -12 8 1 13 20 30 16 21 27 9 -20 -15 -20 -20 -20 -20
-20 -20 -20 -20 -20 -20 -20 -20 -20 -20 -20 -20 -20 -20 -20 -20 -20 -20 -20 -19 -18 8 -20 -20 -1 -11 4 -20 -12 31 34 21 28 27 9 14 16 13 -1 -20 -20 -20 -20
-20 -20 -20 -20 -20 -20 -20 -20 -20 -20 -20 -20 -20 -20 -20 -20 -20 -20 -20 5 14 13 9 8 -11 -17 -2 -20 11 19 22 28 25 31 27 23 6 16 10 2 -20 -20 -20
-20 -20 3 4 -9 2 -4 -20 -20 -20 -20 -20 -20 -20 -20 -20 -20 -20 -20 8 -20 2 3 -13 -20 -20 2 -3 19 23 32 29 27 26 28 21 10 16 3 -20 -19 -19 -20
17 15 14 3 -20 -20 -8 -20 -20 -19 -17 -20 -20 -20 -20 -20 -20 -20 -6 -18 -20 -20 -20 -20 -20 -20 -8 30 29 27 27 27 25 24 23 23 17 -20 -20 -20 -20 -18 -20
-8 -17 -20 -20 -20 -20 1 -18 -20 -20 -20 -17 -20 16 -20 -20 -20 -20 -18 -20 -20 -20 -20 -10 -7 -20 26 26 30 22 18 23 27 26 25 23 26 15 -18 9 4 4 -20
-20 -20 -20 9 26 -20 30 34 35 7 -13 -15 -12 -16 -9 -20 -17 6 7 -20 -20 -20 -20 -20 -20 -20 20 23 27 21 22 25 25 26 24 18 26 23 16 -4 -20 -20 -20
-20 -20 4 13 19 28 36 39 34 35 -1 -6 11 -15 -1 -20 8 6 16 7 -20 -20 -20 -20 -20 -20 13 24 25 29 26 26 27 26 26 28 23 16 5 -15 -18 -20 -13
-20 -20 -20 12 -9 25 19 31 30 36 33 -4 7 6 10 9 6 20 18 13 14 2 -20 -20 -10 -20 -5 25 27 29 30 26 27 27 26 26 17 2 6 13 7 6 16
-20 -20 -20 -20 12 21 7 -13 -0 -4 25 27 14 12 27 11 12 13 13 14 5 10 3 -20 2 -1 -20 10 28 29 28 22 25 27 28 26 28 21 17 22 23 20 22
-20 -20 -15 -20 -20 -20 -20 -16 7 5 13 -8 16 13 27 15 10 6 15 15 9 -13 -20 -14 -12 12 -16 3 24 16 28 26 28 11 26 28 31 25 17 14 10 11 5
-20 -20 -2 2 -1 7 5 15 21 22 22 22 23 17 24 20 16 9 15 12 11 -3 -20 -17 13 20 -19 5 7 19 18 25 28 32 24 12 16 11 20 2 -17 -18 -13
-20 -20 -20 10 6 19 5 12 18 23 17 16 21 19 14 16 13 5 17 17 5 11 12 10 -1 15 12 15 14 14 13 17 -7 19 2 10 16 12 10 13 16 21 25
-20 -15 -11 -8 10 15 15 19 12 17 18 15 8 23 20 11 11 14 23 10 12 -4 13 12 -0 11 1 15 12 17 15 -5 6 -8 21 1 2 26 5 -13 10 12 12
-20 -5 7 17 25 20 11 25 -6 20 17 16 25 20 11 19 -0 3 18 24 16 7 18 12 13 7 14 19 20 17 -9 6 8 21 4 8 23 15 12 -17 7 0 -0
-3 -20 -8 12 31 18 23 21 24 19 16 27 35 28 26 23 12 14 -6 5 6 -17 -19 -20 -20 -18 -5 12 19 20 16 16 7 -1 -11 -4 -20 -7 -14 -18 -0 16 13
-19 11 20 22 -4 17 30 23 26 24 17 32 34 31 29 32 31 29 28 27 30 21 21 26 23 22 14 28 26 24 10 4 -6 -3 1 16 11 14 1 -17 -20 -20 -20
-4 -0 15 -3 13 17 23 16 28 21 23 27 31 33 35 35 37 29 28 31 28 28 24 31 23 7 30 27 27 22 23 23 19 -5 -20 -16 -14 0 -14 -20 -20 -20 -20
2 4 -0 19 24 1 -15 -1 13 23 32 31 25 24 28 26 36 34 27 32 30 25 18 12 14 13 5 28 31 25 17 -10 -8 -20 -20 -12 -20 -20 -20 -20 -20 -20 -20
-1 -2 -3 8 13 -0 -20 4 20 30 21 23 24 23 22 26 28 29 29 30 30 29 24 22 16 19 14 2 -8 3 2 -19 -20 -20 -20 -20 -20 -20 -10 -5 0 1 -17
-2 4 5 -20 -19 3 4 9 -1 9 13 11 17 19 23 22 21 20 20 23 25 25 28 31 26 24 17 15 14 11 13 14 13 8 12 17 14 11 10 -10 -20 -20 -19
-13 -15 -1 10 9 -13 -18 1 9 11 13 14 14 16 16 16 17 16 14 16 19 21 20 12 11 16 11 12 3 -9 -0 7 12 12 11 9 8 8 2 -20 -20 -20 -20
-11 -20 -14 9 15 5 -4 -8 -20 -20 -12 -10 0 8 11 8 7 7 -8 -6 7 9 10 -3 4 -0 -11 -13 -19 -20 -19 -19 -20 -20 -20 -20 -20 -20 -20 -20 -20 -20 -20

GFSMW_prec_radar_090.txt.gz
Reflectivity
-20 -20 -20 -20 -20 -20 -20 -20 -20 -20 -20 -17 2 -4 1 -20 -20 -19 -20 -20 -20 -20 7 -20 -20 -20 -20 27 8 20 19 -20 15 -12 31 35 19 20 21 -20 -20 -20 -20
-20 -20 -20 -20 -20 -20 -20 -20 -20 -20 -16 -14 4 -16 -19 -20 -20 -20 -20 -20 -20 -10 5 -18 -20 -20 -10 16 8 13 -20 -20 8 17 28 32 21 22 13 -20 -20 -20 -20
-20 -20 -20 -20 -20 -20 -20 -20 -20 -20 -17 -20 -7 4 -19 -20 -20 -18 -20 -20 -20 -20 -20 -7 0 14 22 19 19 -20 -20 -20 5 9 35 24 11 15 -6 -19 -20 -20 -20
-20 -20 -20 -20 -20 -20 -20 -20 -20 -13 -9 -20 -6 -20 -20 -20 -20 -20 -20 -20 -20 -20 6 -20 -20 -13 11 5 2 -14 -13 -16 -14 23 30 23 26 32 25 -15 -20 -3 -20
-20 -20 -20 -20 -20 -20 -20 -20 -18 0 -20 -20 -0 -20 -20 -20 -20 -20 -20 -20 -20 -20 -20 -20 -1 -6 -20 -20 12 12 -20 -14 5 6 34 29 32 28 -8 -20 -20 -15 -20
-20 -20 -20 -20 -20 -20 -20 -20 -8 -20 -20 -10 -6 -20 -20 -20 -20 -20 -20 -20 -20 -20 -20 4 -11 -14 -9 -15 3 8 -13 14 31 11 18 26 25 23 21 5 16 9 -15
-15 -20 -19 -20 -20 -20 -19 -1 -13 -20 -14 -17 -19 -19 -20 -20 -20 -20 -20 -20 -20 -19 -13 8 -20 -20 2 17 -7 -11 4 16 28 25 15 19 26 27 20 31 15 -11 -20
-3 -20 -4 -7 -20 -20 -10 16 28 32 -7 -14 -1 2 -20 -20 -20 -20 -20 -20 -20 -12 -6 -16 12 -17 -20 -20 -1 18 17 30 26 15 22 30 27 21 -6 18 -15 -20 -19
23 -20 18 9 -18 -20 -6 27 4 21 -13 28 14 -12 -20 -20 -20 -20 -20 -20 -20 7 -20 -20 -20 -20 -10 3 27 29 30 22 29 33 31 29 24 22 22 5 -20 -2 4
-20 -20 -14 10 15 27 29 30 22 22 29 14 -1 3 -20 -20 -20 -20 -20 -20 -20 2 -17 -20 -20 -18 -19 -4 20 28 27 35 28 27 25 24 23 18 17 -7 -16 -17 -2
-20 -20 0 2 22 27 -11 29 25 31 33 30 33 -14 -20 -20 -20 -20 -20 -20 -20 -20 -20 -20 -20 -19 -1 -8 27 31 29 32 27 36 28 26 23 22 9 2 13 31 23
-20 -20 -20 -3 24 10 27 24 28 27 41 35 33 8 -20 -20 7 -7 8 -20 5 -20 3 -20 -20 -19 -20 2 23 29 27 32 27 32 26 30 28 25 25 28 22 8 13
-20 -20 -20 -20 -12 7 25 30 39 47 32 37 36 26 -1 -13 3 -17 -11 16 13 8 18 -13 -20 -20 -20 -3 20 29 32 26 28 28 28 31 28 29 29 26 27 24 -1
-20 -20 -20 -20 2 -17 16 -4 30 25 16 39 25 28 -20 -4 -5 -18 -17 -8 16 13 8 -10 -20 -20 -19 19 22 25 31 33 28 32 32 28 28 25 25 20 20 13 11
-20 -20 -20 -20 -20 -20 -20 8 1 30 13 23 30 27 -2 16 -1 -10 4 8 4 12 8 6 4 -16 -11 -15 -2 24 14 23 26 16 14 19 21 20 24 25 26 27 19
-20 -20 -20 -20 -20 -20 -11 -20 7 8 16 19 25 28 26 23 -18 6 -20 -20 2 13 14 16 16 19 -15 9 11 21 8 17 22 27 18 23 25 22 15 12 13 10 -20
-10 -17 -20 -20 -18 17 -10 -0 -11 13 21 20 30 16 6 19 10 -11 -7 -20 -2 3 12 11 16 14 12 13 3 11 6 12 6 23 3 18 4 20 -13 9 6 3 4
-4 -2 -2 -20 -20 -13 13 16 8 20 15 32 23 25 13 11 16 -5 -20 -20 -5 7 20 17 14 9 18 17 17 10 -11 -6 0 -8 -20 -20 -16 9 -8 -14 5 -0 -8
4 -5 1 -2 -20 -19 20 27 14 23 17 25 29 23 26 32 26 23 17 5 16 10 9 16 17 19 19 20 22 17 -6 4 -6 -11 -18 -10 -7 23 9 17 16 6 -2
-10 -2 -18 -20 -20 -20 17 15 15 4 17 12 28 27 22 33 40 33 25 23 24 22 23 1 24 28 24 24 26 24 4 6 10 20 22 19 10 22 12 -2 -12 4 15
1 -13 -1 -3 -4 -15 -20 1 21 17 22 19 9 6 21 27 34 33 30 26 30 20 22 11 15 18 17 24 35 31 11 10 8 15 22 29 31 24 26 25 2 -20 -20
-13 -13 -20 -18 -7 -3 -18 -15 -1 18 20 22 24 17 12 20 27 34 26 25 25 20 22 23 24 23 25 25 24 26 26 29 18 23 19 5 8 3 8 -20 -20 -20 -20
-20 -20 -20 -19 -20 -20 -13 -20 6 9 15 18 19 15 12 8 6 15 18 24 29 28 25 24 17 19 22 19 18 21 23 20 20 23 22 10 -2 5 9 -16 -20 -20 -20
-18 -20 -20 -20 -20 -17 -18 -17 -20 -7 1 1 10 7 7 16 5 8 13 15 20 24 23 21 21 23 24 23 24 21 11 14 19 17 21 18 15 16 13 0 -6 4 1
-20 -20 -20 -20 -20 -17 -10 0 18 0 9 15 13 13 10 12 15 16 18 19 19 20 20 21 23 25 25 26 27 26 26 24 21 18 12 6 2 -5 -3 -2 1 1 -0
-20 -20 -20 -20 -20 -20 -19 -12 -7 1 6 3 5 6 5 5 6 10 10 10 12 14 12 10 8 6 13 18 16 17 17 18 15 16 13 -3 -18 -20 -20 -20 -20 -20 -20

GFSMW_prec_radar_093.txt.gz
Reflectivity
-20 -20 -20 -20 -20 -20 -20 -20 -20 -20 -20 -8 -20 -20 -20 -20 -19 -18 -20 -20 -20 -20 -20 8 -20 -20 -20 -2 -2 -1 -20 -20 -4 17 9 -0 -2 14 28 28 -19 -20 -20
-20 -20 -20 -20 -20 -20 -20 -20 -20 -20 -20 9 -2 -20 -20 -20 16 15 -20 -20 -20 -20 -20 -20 -13 18 -20 -20 -7 6 19 -20 12 9 -2 -1 30 24 28 23 1 -19 -20
-20 -20 -20 -20 -20 -20 -20 -20 -20 -20 -20 9 2 -20 -20 -17 36 20 -6 -16 -20 -20 -20 -4 1 -17 3 5 0 13 19 -20 9 -3 -14 4 16 28 25 19 18 -2 -15
-20 -20 -20 -20 -20 -20 -20 -20 -20 -20 -9 -7 -20 -20 -20 -1 -10 15 -12 -20 -20 -20 2 0 8 6 -19 9 2 -2 6 21 -20 -20 -20 -2 25 26 22 28 29 -10 -20
-20 -20 -20 -20 -20 -20 -20 -20 -17 -20 -20 -20 -20 -20 -20 6 -13 -6 -20 -20 -20 -20 -20 7 -3 18 -4 -7 15 15 0 13 15 -20 -20 2 9 29 32 33 33 15 2
-20 -20 -20 -20 -20 -20 -20 -20 -20 -20 -20 -20 -20 -20 -20 -1 -5 12 -16 -20 -20 -20 -20 -13 -3 5 3 -15 -4 16 -2 8 -20 14 -20 -8 14 25 35 34 32 11 -14
-11 -20 -5 -20 -17 -20 -20 -20 -20 -20 -20 -20 -20 -17 -20 -20 -19 -5 -13 -20 -20 -20 -8 -12 11 16 13 2 9 9 20 -8 -18 -20 -20 -15 26 35 37 32 30 8 -20
18 -19 -1 -18 9 -6 -15 26 7 -20 -20 -20 -1 -12 3 -15 -15 -10 -20 -20 -20 -20 -20 2 15 14 13 15 11 20 3 -11 2 -12 8 29 27 32 29 25 30 28 10
3 9 5 -14 12 -1 16 11 2 -20 -20 -20 -3 31 32 -7 1 -20 -20 -20 -20 -20 -20 11 8 8 7 11 18 21 -2 1 22 9 14 25 23 27 28 30 28 20 24
21 -1 -10 1 1 -20 22 12 20 3 -13 -20 28 31 30 -13 18 -20 -20 -20 -20 -20 -2 -20 -18 -19 3 9 6 -7 8 24 22 28 20 31 23 32 27 23 29 1 -3
21 -20 -19 9 13 15 9 -8 -19 17 7 18 28 29 7 -0 8 -20 -20 -20 -20 -20 -20 -20 -18 -17 -20 -20 -20 18 24 28 37 33 28 26 28 33 23 26 21 29 14
7 -20 1 -4 13 18 21 -18 -18 7 29 29 32 31 28 -8 -20 -18 -20 -20 -20 -20 -20 -20 -20 -20 -20 -20 -20 16 28 30 23 24 20 30 28 23 24 23 27 31 2
2 -13 -20 10 -14 -7 22 18 8 5 26 26 36 31 29 30 -16 -8 -16 -20 -20 -20 -20 -20 -20 -20 -5 -18 1 -1 32 34 29 27 31 28 28 25 23 20 26 24 29
-8 -12 -20 -6 -10 -3 23 11 12 31 32 18 21 27 36 29 -8 -2 -20 -20 -20 -20 -20 -20 -13 -19 -18 12 -7 4 20 31 30 31 30 36 28 31 28 27 26 24 24
-20 -20 -20 -20 -14 -14 -20 13 3 19 20 19 28 41 37 27 -13 11 4 -20 -20 -20 -20 -20 -20 -20 -11 2 -1 21 21 28 30 28 27 30 28 33 29 26 27 26 22
-20 -20 -20 -20 -18 -0 -6 -8 -6 -17 25 23 33 34 47 24 3 3 6 -20 -20 -20 -20 -20 -20 -15 -20 17 11 11 15 13 26 22 29 34 30 25 25 27 27 29 29
-15 -20 -20 -20 -20 -9 15 -11 -10 -9 17 8 40 29 29 39 10 11 -10 -20 -20 -20 -20 -20 -20 -20 5 12 -3 22 14 0 5 22 30 29 26 32 30 31 32 31 15
-3 -1 -20 -20 -20 -12 3 9 13 -6 16 14 37 14 36 45 38 18 8 -13 3 12 -10 -20 -12 7 3 13 13 17 12 21 23 -18 2 16 18 22 24 30 11 3 4
-0 -2 -2 -20 -20 -20 -10 20 10 13 21 25 27 36 38 39 37 25 13 31 24 -14 -20 -20 -18 -13 12 10 11 24 -2 0 9 23 22 18 2 16 17 -6 -7 -5 -19
-1 -9 -12 -13 -19 -20 -20 -20 -5 19 -2 15 -0 18 32 38 30 24 26 26 12 6 -0 -9 -19 15 -0 15 14 16 7 9 14 -4 0 18 16 22 10 -11 0 4 20
-11 -20 -20 -18 1 -15 -20 -20 -20 -16 -19 -12 11 11 9 24 22 23 33 24 25 20 21 21 15 9 15 11 16 15 11 21 18 15 5 18 17 8 16 21 18 22 10
-20 -20 -20 -17 -20 -20 -20 -20 -20 -19 -2 -1 -15 -6 -9 -2 10 15 18 26 25 29 26 20 22 24 18 26 23 20 26 20 26 23 25 22 30 25 24 19 16 14 13
-20 -20 -20 -20 -20 -20 -20 -20 -20 -20 -20 -20 -19 -6 5 11 9 -1 8 14 15 20 24 25 20 23 22 19 21 23 24 22 19 20 22 22 17 -0 -10 7 16 12 5
-20 -20 -20 -20 -20 -19 -19 -17 -20 -20 -20 -20 -20 -17 -12 -13 -2 4 11 13 16 17 16 17 16 20 20 22 24 24 22 24 25 25 23 10 5 1 4 4 -6 -6 8
-20 -20 -20 -20 -20 -20 -20 -20 -3 -20 -20 -20 -20 -18 -15 -12 -16 -5 2 3 4 0 6 9 10 16 21 23 21 18 18 17 18 17 18 20 20 20 20 22 21 20 20
-20 -20 -20 -20 -20 -20 -20 -20 -20 -20 -20 -20 -20 -12 -9 -14 -10 -19 -15 3 7 8 5 -2 0 9 14 14 13 15 15 14 13 9 11 15 17 19 19 19 19 18 16

GFSMW_prec_radar_099.txt.gz
Reflectivity
-20 -20 -20 -20 -20 -20 -20 -20 -20 -20 -20 -20 -7 0 -20 -20 -14 -15 -19 -20 -20 -20 -17 -20 -4 -20 -20 -20 -5 -9 2 0 -13 -20 -20 -20 2 22 24 32 37 33 25
-20 -20 -20 -20 -20 -20 -20 -20 -20 -20 -20 -20 -20 -20 -20 -2 -3 3 -1 -16 -20 -20 -20 -10 -3 -20 -20 -1 2 -2 -20 -2 -4 -20 -12 -4 -11 18 9 31 29 22 20
-20 -20 -20 -20 -20 -20 -20 -20 -20 -20 -20 -20 -10 6 9 11 13 9 -12 -4 -7 -17 13 10 -20 -20 -20 -20 -14 1 -13 13 7 -19 -5 4 -5 4 13 28 25 29 21
-20 -20 -20 -20 -20 -20 -20 -20 -20 -20 -20 -20 -3 5 -17 -14 -14 -20 -6 0 -18 2 33 21 18 -4 -4 -20 0 -4 -4 12 1 -14 -4 -20 -20 15 -0 -4 6 15 29
-20 -20 -20 -20 -20 -20 -20 -20 -20 -20 -20 -20 -15 5 2 1 3 -11 -20 -14 6 -6 4 33 40 31 -0 -20 -2 -20 -4 13 12 8 2 -0 -11 13 -17 -4 11 -14 -4
-20 -20 -20 -20 -20 -20 -20 -20 -18 -20 -20 -19 -16 8 3 5 9 -5 -13 -2 -18 -15 5 20 29 20 5 6 7 -2 2 10 12 9 4 -2 5 -4 -20 -14 14 -19 20
-20 -20 -20 -20 0 -13 -20 2 -1 -20 -20 -20 2 12 8 10 10 -3 -20 -20 -12 -14 -1 23 20 -4 -16 -3 3 -11 1 16 10 7 7 11 23 5 7 -8 -20 -20 -19
-20 -20 -20 -20 -18 -1 -13 9 10 7 22 -20 15 9 3 12 12 10 -16 -20 -20 2 29 -14 -18 6 -20 -20 -11 -3 19 8 1 8 -10 1 18 22 16 -16 12 -14 -20
-20 -20 -20 -20 -18 8 -1 10 5 1 -6 -13 14 0 23 3 20 14 1 -13 -20 -8 -6 -8 8 -17 -13 -10 -15 13 10 -4 14 -18 7 9 18 -18 -6 17 -20 -20 -8
-20 -20 -20 -20 -17 27 20 10 3 21 8 -6 18 26 -9 -12 20 -5 -7 9 8 22 31 24 -1 5 -2 5 -1 -13 -12 -4 -3 3 -10 16 -3 -20 -20 -20 -15 -3 -12
-20 -20 -20 -20 -20 -1 26 14 13 20 29 23 20 -1 -15 2 -7 -5 -10 3 17 31 31 20 13 -16 -10 -3 -2 4 4 8 4 13 -2 -11 -15 -4 -1 -3 -18 -19 23
-20 -20 -20 -20 -20 -20 16 2 12 23 27 28 30 20 -2 20 17 -14 -19 -11 11 26 11 15 0 -7 -20 -11 -5 15 6 2 -13 -16 17 -0 2 28 -2 9 29 13 15
-20 -20 -20 -20 -20 -20 4 23 17 15 24 27 14 15 -5 23 28 21 -17 -20 -19 25 15 4 16 -19 -18 -0 3 -1 -18 -10 -20 -17 -20 -11 20 27 6 4 16 24 13
-20 -20 -20 -20 -20 -19 -14 29 7 25 23 14 21 16 14 19 21 10 28 -20 -16 16 15 -8 -20 -20 -19 -16 -20 -20 -5 -20 -14 -20 -16 8 27 10 24 8 19 24 26
-20 -20 -20 -20 -20 -20 -17 -13 -9 34 26 35 19 15 14 12 6 7 9 18 -6 27 -18 -20 -20 -20 -20 -19 -9 5 -12 -15 -20 -20 -20 -11 15 14 27 19 23 25 29
-8 -20 -20 -20 -20 -20 -20 -1 7 -10 5 19 32 28 -8 -9 21 22 17 42 16 15 -17 -20 -18 -20 -20 7 10 8 -20 -20 -20 -20 -7 16 21 20 27 26 25 31 32
-6 -4 -6 -20 -20 -15 -15 -18 10 21 -5 7 32 22 26 23 23 33 27 41 43 21 22 -4 -20 -20 -12 5 9 12 -20 -20 -20 -10 -10 13 29 29 24 21 27 33 32
-2 -4 -4 -20 -20 -20 -20 -20 -16 4 8 -10 -1 26 11 26 13 12 32 41 42 33 24 15 -6 -20 -20 -7 15 15 -19 -20 -19 2 -17 6 9 27 29 30 36 36 36
-6 -5 -2 -5 -15 -20 -20 -20 -20 -20 -14 14 3 5 9 10 26 36 38 40 42 32 13 4 4 -14 -20 -11 10 18 -20 -16 -20 2 8 6 5 2 24 32 33 33 36
-20 -18 -1 -1 -20 -19 -20 -20 -20 -20 -20 -16 0 1 4 4 16 24 35 36 36 40 27 4 2 13 -18 4 18 16 -16 -20 7 -20 11 22 11 13 14 18 24 26 19
-20 -20 -20 -19 3 -20 -20 -20 -20 -19 -14 -15 -20 -20 -17 -4 2 21 27 28 30 35 29 24 15 10 10 19 21 18 5 -4 -19 -3 0 0 6 16 15 17 16 19 23
-20 -20 -20 -20 -19 -2 -20 -20 -20 -20 -20 -20 -20 -20 -20 -20 -20 1 12 19 25 29 34 31 26 35 24 27 34 26 19 17 11 7 -5 8 9 14 12 15 20 22 16
-20 -20 -20 -20 -20 -20 -7 -20 -20 -20 -20 -20 -20 -20 -20 -20 -20 -20 -17 -11 8 13 10 19 23 19 17 14 14 14 14 12 11 1 17 20 16 7 11 18 16 14 -1
-20 -20 -20 -20 -20 -20 -20 -20 -18 -20 -20 -20 -20 -20 -20 -20 -20 -20 -20 -20 -20 -20 -3 -0 -9 8 13 7 5 9 12 14 15 15 13 10 2 5 14 16 16 16 14
-20 -20 -20 -20 -20 -20 -20 -20 -20 -20 -20 -20 -20 -20 -20 -20 -20 -8 4 3 6 -0 -3 0 -1 -20 -2 1 -2 -12 -7 3 6 11 7 -7 -4 5 12 14 14 13 16
-20 -20 -20 -20 -20 -20 -20 -20 -20 -20 -20 -20 -20 -20 -20 -20 -20 -20 -20 -20 -8 1 -4 -13 1 8 3 -15 -15 -19 -16 -10 0 -11 -9 -14 -18 -12 -2 3 5 6 10